KNEHIC Weather Reports


Display with metric or nautical units.
time (UTC)temp
F
wind
direction
speed
MPH
gust
MPH
rain 1hr
in
rain 24hr
in
rain mn
in
humidity
%
barometer
mb
20200219104419 18 360 0.0 0.0 0.00 0.00 0.00 92 1.1
20200219103517 18 360 0.0 0.0 0.00 0.00 0.00 91 1.1
20200219102519 19 360 0.0 0.0 0.00 0.00 0.00 91 1.1
20200219101616 18 360 1.0 0.0 0.00 0.00 0.00 92 1.1
20200219100716 18 344 2.0 0.0 0.00 0.00 0.00 91 1.1
20200219095718 18 337 0.0 0.0 0.00 0.00 0.00 91 1.1
20200219094719 19 337 0.0 0.0 0.00 0.00 0.00 89 1.1
20200219093819 19 337 1.0 0.0 0.00 0.00 0.00 91 1.1
20200219092918 20 337 0.0 0.0 0.00 0.00 0.00 90 1.1
20200219092017 20 337 0.0 0.0 0.00 0.00 0.00 89 1.1
20200219091017 20 337 0.0 0.0 0.00 0.00 0.00 89 1.1
20200219090017 21 315 0.0 0.0 0.00 0.00 0.00 88 1.1
20200219085018 21 315 0.0 0.0 0.00 0.00 0.00 88 1.1
20200219084118 21 309 1.0 0.0 0.00 0.00 0.00 87 1.1
20200219083120 21 360 1.0 0.0 0.00 0.00 0.00 87 1.1
20200219082219 21 360 0.0 0.0 0.00 0.00 0.00 86 1.1
20200219081219 22 360 1.0 0.0 0.00 0.00 0.00 87 1.1
20200219080217 22 315 2.0 0.0 0.00 0.00 0.00 86 1.1
20200219075218 23 315 1.0 0.0 0.00 0.00 0.00 86 1.1
20200219074316 22 325 0.0 0.0 0.00 0.00 0.00 87 1.1
20200219073319 21 4 1.0 0.0 0.00 0.00 0.00 88 1.1
20200219072419 20 360 0.0 0.0 0.00 0.00 0.00 87 1.1
20200219071418 21 337 0.0 0.0 0.00 0.00 0.00 87 1.1
20200219070417 21 337 0.0 0.0 0.00 0.00 0.00 85 1.1
20200219065518 22 337 0.0 0.0 0.00 0.00 0.00 85 1.1
20200219063518 23 135 0.0 0.0 0.00 0.00 0.00 82 1.1
20200219062518 24 135 0.0 0.0 0.00 0.00 0.00 82 1.1
20200219061517 25 135 0.0 0.0 0.00 0.00 0.00 82 1.1
20200219060519 24 135 2.0 0.0 0.00 0.00 0.00 84 1.1
20200219055525 24 135 2.0 0.0 0.00 0.00 0.00 83 1.1
20200219054528 24 135 1.0 0.0 0.00 0.00 0.00 82 1.1
20200219053526 24 135 1.0 0.0 0.00 0.00 0.00 84 1.1
20200219052624 24 135 2.0 0.0 0.00 0.00 0.00 84 1.1
20200219051626 24 135 1.0 0.0 0.00 0.00 0.00 84 1.1
20200219050724 24 135 1.0 0.0 0.00 0.00 0.00 84 1.1
20200219045726 24 135 1.0 0.0 0.00 0.00 0.00 84 1.1
20200219044725 23 112 1.0 0.0 0.00 0.00 0.00 83 1.1
20200219043727 23 112 0.0 0.0 0.00 0.00 0.00 81 1.1
20200219042724 24 112 0.0 0.0 0.00 0.00 0.00 80 1.1
20200219041826 24 112 0.0 0.0 0.00 0.00 0.00 77 1.1
20200219040827 26 112 0.0 0.0 0.00 0.00 0.00 76 1.1
20200219035925 27 112 0.0 0.0 0.00 0.00 0.00 77 1.1
20200219034924 26 112 2.0 0.0 0.00 0.00 0.00 78 1.1
20200219034024 26 90 1.0 0.0 0.00 0.00 0.00 79 1.1
20200219033026 26 141 3.0 0.0 0.00 0.00 0.00 77 1.1
20200219032125 26 157 2.0 0.0 0.00 0.00 0.00 77 1.1
20200219031126 26 135 0.0 0.0 0.00 0.00 0.00 77 1.1
20200219030125 26 135 1.0 0.0 0.00 0.00 0.00 77 1.1
20200219025126 26 135 2.0 0.0 0.00 0.00 0.00 75 1.1
20200219024224 26 135 1.0 0.0 0.00 0.00 0.00 74 1.1
20200219022424 27 135 2.0 0.0 0.00 0.00 0.00 73 1.1
20200219021425 28 157 1.0 0.0 0.00 0.00 0.00 71 1.1
20200219015527 29 157 0.0 0.0 0.00 0.00 0.00 69 1.1
20200219014625 30 157 0.0 0.0 0.00 0.00 0.00 69 1.1
20200219013627 30 157 2.0 0.0 0.00 0.00 0.00 66 1.1
20200219012627 31 315 0.0 0.0 0.00 0.00 0.00 64 1.1
20200219011625 31 315 0.0 0.0 0.00 0.00 0.00 62 1.1
20200219010626 32 315 0.0 0.0 0.00 0.00 0.00 60 1.1
20200219005626 33 315 0.0 0.0 0.00 0.00 0.00 57 1.1
20200219004627 34 315 0.0 0.0 0.00 0.00 0.00 53 1.1
20200219003725 36 315 0.0 0.0 0.00 0.00 0.00 51 1.1
20200219002726 37 315 0.0 0.0 0.00 0.00 0.00 49 1.1
20200219001727 38 315 0.0 0.0 0.00 0.00 0.00 47 1.1
20200219000827 39 315 1.0 0.0 0.00 0.00 0.00 47 1.1
20200218235923 40 337 1.0 0.0 0.00 0.00 0.00 46 1.1
20200218234926 41 306 2.0 0.0 0.00 0.00 0.00 44 1.1
20200218234024 41 305 2.0 0.0 0.00 0.00 0.00 42 1.1
20200218233025 42 307 4.0 0.0 0.00 0.00 0.00 41 1.1
20200218232125 43 297 3.0 0.0 0.00 0.00 0.00 40 1.1
20200218230224 43 284 1.0 0.0 0.00 0.00 0.00 39 1.1
20200218225325 44 311 4.0 0.0 0.00 0.00 0.00 39 1.1
20200218224325 44 276 1.0 0.0 0.00 0.00 0.00 40 1.1
20200218223425 44 315 3.0 0.0 0.00 0.00 0.00 39 1.1
20200218222426 45 272 3.0 0.0 0.00 0.00 0.00 38 1.1
20200218221526 44 288 2.0 0.0 0.00 0.00 0.00 39 1.1
20200218220525 43 301 2.0 0.0 0.00 0.00 0.00 38 1.1
20200218215525 43 318 6.0 0.0 0.00 0.00 0.00 38 1.1
20200218213627 45 300 4.0 0.0 0.00 0.00 0.00 38 1.1
20200218212726 44 132 0.0 0.0 0.00 0.00 0.00 39 1.1
20200218211825 43 166 1.0 0.0 0.00 0.00 0.00 38 1.1
20200218210925 43 337 4.0 0.0 0.00 0.00 0.00 39 1.1
20200218210024 42 356 5.0 0.0 0.00 0.00 0.00 39 1.1
20200218205124 42 307 4.0 0.0 0.00 0.00 0.00 40 1.1
20200218204225 42 302 3.0 0.0 0.00 0.00 0.00 40 1.1
20200218203226 42 296 3.0 0.0 0.00 0.00 0.00 42 1.1
20200218202324 42 292 1.0 0.0 0.00 0.01 0.00 42 1.1
20200218201327 42 293 2.0 0.0 0.00 0.01 0.00 43 1.1
20200218200326 42 245 2.0 0.0 0.00 0.01 0.00 44 1.1
20200218195424 41 355 0.0 0.0 0.00 0.01 0.00 45 1.1
20200218194425 40 302 3.0 0.0 0.00 0.01 0.00 46 1.1
20200218193526 40 276 4.0 0.0 0.00 0.01 0.00 47 1.1
20200218192526 40 283 5.0 0.0 0.00 0.01 0.00 47 1.1
20200218191625 40 337 3.0 0.0 0.00 0.01 0.00 48 1.1
20200218190725 40 258 0.0 0.0 0.00 0.01 0.00 48 1.1
20200218185727 40 337 4.0 0.0 0.00 0.01 0.00 49 1.1
20200218184826 39 328 4.0 0.0 0.00 0.01 0.00 51 1.1
20200218183925 39 312 1.0 0.0 0.00 0.01 0.00 52 1.1
20200218183025 38 356 6.0 0.0 0.00 0.01 0.00 54 1.1
20200218182124 38 287 5.0 0.0 0.00 0.01 0.00 55 1.1
20200218181224 37 319 4.0 0.0 0.00 0.01 0.00 57 1.1
20200218180225 37 321 5.0 0.0 0.00 0.01 0.00 57 1.1
20200218175226 36 22 5.0 0.0 0.00 0.01 0.00 58 1.1
20200218174226 37 25 5.0 0.0 0.00 0.01 0.00 56 1.1
20200218173226 37 22 5.0 0.0 0.00 0.01 0.00 59 1.1
20200218172326 36 345 5.0 0.0 0.00 0.01 0.00 60 1.1
20200218171425 36 336 4.0 0.0 0.00 0.01 0.00 60 1.1
20200218170524 35 334 5.0 0.0 0.00 0.01 0.00 63 1.1
20200218165624 35 330 6.0 0.0 0.00 0.01 0.00 65 1.1
20200218164625 34 347 6.0 0.0 0.00 0.01 0.00 66 1.1
20200218163626 34 18 2.0 0.0 0.00 0.01 0.00 67 1.1
20200218162726 34 22 3.0 0.0 0.00 0.01 0.00 70 1.1
20200218161724 33 7 5.0 0.0 0.00 0.01 0.00 72 1.1
20200218160726 31 7 3.0 0.0 0.00 0.01 0.00 75 1.1
20200218155726 31 340 6.0 0.0 0.00 0.01 0.00 76 1.1
20200218154826 30 359 1.0 0.0 0.00 0.01 0.00 78 1.1
20200218153928 30 321 5.0 0.0 0.00 0.01 0.00 79 1.1
20200218153029 29 345 4.0 0.0 0.00 0.01 0.00 81 1.1
20200218152116 27 323 5.0 0.0 0.00 0.01 0.00 83 1.1
20200218151125 27 355 6.0 0.0 0.00 0.01 0.00 85 1.1
20200218150127 26 314 3.0 0.0 0.00 0.01 0.00 85 1.1
20200218145126 25 326 4.0 0.0 0.00 0.01 0.00 88 1.1
20200218144225 24 332 4.0 0.0 0.00 0.01 0.00 89 1.1
20200218143225 23 331 3.0 0.0 0.00 0.01 0.00 90 1.1
20200218142229 22 315 3.0 0.0 0.00 0.01 0.00 90 1.1
20200218141225 21 315 2.0 0.0 0.00 0.01 0.00 92 1.1
20200218140324 21 306 2.0 0.0 0.00 0.01 0.00 92 1.1
20200218135326 20 315 2.0 0.0 0.00 0.01 0.00 93 1.1
20200218134326 20 315 1.0 0.0 0.00 0.01 0.00 93 1.1
20200218133426 20 337 1.0 0.0 0.00 0.01 0.00 92 1.1
20200218132425 20 322 2.0 0.0 0.00 0.01 0.00 92 1.1
20200218131427 20 315 0.0 0.0 0.00 0.01 0.00 92 1.1
20200218130425 20 315 0.0 0.0 0.00 0.01 0.00 92 1.1
20200218125425 20 315 0.0 0.0 0.00 0.01 0.00 92 1.1
20200218124426 20 315 2.0 0.0 0.00 0.01 0.00 90 1.1
20200218123526 21 337 1.0 0.0 0.00 0.01 0.00 91 1.1
20200218122526 21 337 1.0 0.0 0.00 0.01 0.00 89 1.1
20200218121524 21 337 2.0 0.0 0.00 0.01 0.00 90 1.1
20200218120526 21 315 1.0 0.0 0.00 0.01 0.00 89 1.1
20200218115625 21 315 2.0 0.0 0.00 0.01 0.00 89 1.1
20200218114629 22 337 0.0 0.0 0.00 0.01 0.00 88 1.1
20200218113724 22 315 1.0 0.0 0.00 0.01 0.00 87 1.1
20200218112727 22 315 2.0 0.0 0.00 0.01 0.00 86 1.1
20200218111826 23 337 1.0 0.0 0.00 0.01 0.00 87 1.1
20200218110926 22 337 1.0 0.0 0.00 0.01 0.00 87 1.1
20200218105925 23 345 2.0 0.0 0.00 0.01 0.00 86 1.1